Location: ????????
(60.4333°N, 46.4710°E)
Time: 18:51:09
(UTC+00:00)

Cosmos 1934 Rocket - Pass Details

Date: 25 November 2020
Orbit: 937 x 1000 km, 83.0° (Epoch: 16 January)

Event Time Altitude Azimuth Distance (km) Brightness Sun altitude
Rises 14:49:56 0° 343° (NNW) 3,735 7.2 -19.1°
Reaches altitude 10° 14:52:41 10° 352° (N) 2,785 6.4 -19.5°
Maximum altitude 14:58:39 39° 60° (ENE) 1,463 4.5 -20.2°
Enters shadow 14:59:53 36° 86° (E) 1,542 4.5 -20.4°
